Wind_Speed
2 2 2 2 2 2 2 2 3 3 2 2 2 2 2 2 2 2 2 3 3 4 4 3 3 3 3 3 3 3 3 4 4 4 5 6 6 6 6 5 6 6 7 7 7 6 8 7 7
2 3 3 3 2 3 3 2 3 3 2 2 2 2 2 2 2 2 2 2 4 4 4 4 4 3 3 3 3 3 3 3 4 4 5 6 6 6 6 5 5 5 5 6 7 6 8 7 7
4 4 3 3 3 3 3 3 3 3 3 2 2 2 2 2 2 2 2 3 3 4 5 4 4 4 4 4 4 3 4 4 4 5 5 5 6 7 7 6 6 6 6 6 6 6 7 8 8
3 3 3 3 3 3 3 3 3 3 3 3 2 3 3 3 2 2 2 3 3 4 5 5 4 5 5 5 5 4 4 4 5 5 5 5 6 7 7 7 7 6 6 6 7 7 7 8 9
3 3 3 3 3 3 3 3 3 3 3 3 2 3 3 3 3 3 2 2 3 4 5 5 5 5 5 5 6 6 5 6 6 6 6 6 6 7 8 8 8 7 7 7 7 8 8 8 9
3 2 3 3 4 3 3 3 3 2 2 2 3 3 3 3 3 3 3 3 3 4 4 5 6 6 6 6 6 6 6 6 7 7 7 7 8 8 8 9 8 8 8 9 9 9 9 9 9
2 2 2 3 3 3 3 2 2 2 2 3 3 3 3 3 3 3 3 3 4 4 5 5 6 7 7 7 7 7 7 7 7 7 8 8 8 8 9 9 9 9 9 10 10 10 10 10 10
2 2 2 2 3 3 2 2 1 2 2 3 3 3 3 3 3 3 3 3 4 5 6 6 6 7 7 8 8 8 8 8 8 8 8 8 9 9 9 10 10 10 10 11 11 11 11 11 11
2 2 2 2 2 2 2 2 2 2 2 2 2 3 3 3 3 3 4 4 5 6 6 6 6 7 7 7 8 8 8 8 9 8 8 9 9 9 9 10 10 10 11 11 11 11 11 11 12
2 2 3 3 2 2 2 2 2 2 2 2 2 3 3 3 3 3 4 4 5 6 6 6 7 7 7 8 8 9 9 9 9 9 9 9 10 10 10 10 10 10 11 11 11 12 12 12 12
2 2 3 2 2 2 2 2 2 2 2 2 3 3 3 3 3 3 4 5 6 5 6 6 7 8 8 8 8 9 9 9 9 10 10 10 10 10 11 11 11 11 11 12 12 12 12 12 13
3 3 2 3 3 2 2 2 2 3 3 3 3 3 3 4 4 4 5 6 7 7 6 7 7 8 9 9 9 10 10 10 10 10 10 10 10 11 11 11 12 12 12 12 13 13 12 12 13
4 3 3 4 4 3 3 3 4 4 4 4 4 4 4 5 5 5 6 7 7 7 7 8 8 9 9 9 10 11 11 11 11 11 11 11 11 11 12 12 12 13 13 13 13 13 13 13 13
5 4 4 4 5 4 4 4 4 4 5 5 5 5 5 6 6 6 6 7 7 7 8 8 9 9 10 10 10 11 12 12 12 12 12 12 12 12 12 13 12 13 13 14 13 13 13 13 13
5 5 5 5 5 5 5 5 5 5 6 6 6 6 6 7 7 8 8 8 8 8 9 9 10 10 10 11 11 11 11 11 11 12 13 13 13 13 13 13 13 13 13 14 15 15 14 14 14
7 6 6 6 5 5 5 6 6 7 7 7 7 7 7 7 8 8 9 9 9 9 9 10 10 11 11 12 11 11 11 11 11 12 13 13 13 13 13 13 13 13 13 14 14 14 15 14 14
8 7 7 7 7 6 7 7 7 8 8 8 8 8 9 9 9 9 10 10 10 10 10 10 11 11 12 12 12 12 12 12 12 13 13 13 14 14 14 14 14 14 14 14 14 14 15 15 14
8 8 8 8 8 8 8 8 8 9 9 9 9 9 10 10 10 10 10 11 11 11 11 11 11 11 11 12 13 13 13 13 13 13 13 14 14 14 15 14 14 14 15 15 15 15 14 15 15
9 8 9 9 9 9 9 9 10 10 10 10 10 11 11 11 11 11 11 11 12 12 12 12 12 12 12 12 13 13 13 14 14 13 14 14 14 14 15 15 14 14 15 15 15 15 15 14 15
9 9 10 10 10 10 10 10 11 11 11 11 11 11 11 12 12 12 13 13 13 13 13 13 13 13 13 13 13 14 14 14 14 14 14 14 14 15 15 15 15 15 15 15 15 15 15 15 15
10 10 10 11 11 11 11 11 12 12 12 12 12 12 12 12 13 13 13 13 14 14 15 14 14 14 14 14 14 15 15 15 15 15 14 15 15 15 15 14 14 14 15 15 15 15 15 15 15
10 11 11 12 12 12 12 12 13 13 13 13 13 13 13 13 14 14 14 14 15 15 15 15 15 15 15 15 16 16 16 16 16 16 16 15 15 15 15 16 15 15 16 16 16 16 16 16 16
11 11 11 12 12 12 12 13 13 13 13 13 14 14 14 14 14 14 15 15 16 16 16 15 16 16 16 16 16 16 16 16 16 16 16 16 16 16 15 15 16 16 16 17 17 16 16 16 17
11 11 12 12 12 12 13 13 13 13 13 14 14 14 14 15 15 15 15 16 16 16 16 16 16 16 16 16 16 16 16 15 15 16 16 17 17 16 16 16 16 17 17 17 17 17 17 16 17
11 11 12 12 13 13 13 13 13 14 14 14 14 14 14 14 14 15 16 16 16 16 16 16 17 17 17 16 16 15 15 15 16 16 17 17 17 17 16 17 17 17 17 17 17 17 17 17 16
11 12 12 13 13 13 13 13 14 14 15 15 15 15 15 15 15 16 16 16 16 17 17 17 17 17 17 16 16 16 15 15 16 17 17 17 18 17 17 17 17 17 17 17 17 18 18 17 17
12 13 13 14 14 14 14 14 14 15 15 15 15 16 15 15 16 16 17 17 17 17 18 18 18 18 17 17 17 17 16 15 16 17 17 18 19 18 18 18 18 18 18 18 18 18 18 18 18
14 14 14 15 15 15 14 14 15 15 15 15 16 16 16 16 17 17 18 18 18 18 18 19 19 19 18 18 17 17 18 17 17 18 18 19 19 19 19 19 19 19 19 19 19 19 19 19 19
15 15 15 16 16 16 15 15 15 16 16 17 17 17 17 17 18 18 18 19 19 19 19 19 19 19 19 18 18 18 18 18 18 19 20 19 19 19 19 20 20 20 20 20 20 20 20 20 21
16 16 17 17 17 17 17 17 17 17 17 18 18 18 19 19 19 19 19 19 19 19 19 19 19 20 20 20 19 19 19 19 19 20 20 21 21 20 20 21 21 21 22 22 22 21 21 21 22
Wind_Direction
296 289 293 298 291 289 284 281 271 273 258 254 254 241 240 238 218 222 223 220 215 211 216 222 229 229 231 234 245 238 229 221 216 215 213 217 218 220 224 230 230 232 232 232 224 221 215 215 215
300 294 286 280 284 287 284 283 274 268 247 241 236 218 215 219 223 230 232 229 226 225 224 224 231 231 232 233 239 241 235 225 219 219 218 221 218 217 219 226 230 230 228 228 224 220 218 222 222
300 298 280 270 272 282 281 279 279 265 251 246 237 223 217 226 243 247 237 238 236 235 232 226 227 231 237 231 236 238 239 233 225 225 224 223 221 218 220 223 227 225 225 225 220 217 225 227 230
304 300 284 267 266 271 274 276 277 263 252 249 248 236 235 245 252 256 250 251 257 250 244 235 238 245 242 237 244 240 243 243 236 238 233 228 228 227 229 230 230 229 229 224 224 224 226 227 231
310 306 284 265 272 267 268 268 274 267 255 254 255 252 245 255 260 260 261 272 269 259 247 246 247 249 249 249 254 259 254 250 248 249 247 243 242 240 236 237 237 234 235 235 236 235 234 236 238
315 309 275 271 268 273 265 277 273 260 249 249 254 255 251 254 259 264 265 276 275 261 257 255 252 250 252 255 259 259 258 254 251 254 256 253 249 246 242 242 244 242 241 241 241 242 243 243 244
315 303 274 264 262 266 262 272 267 251 243 242 255 258 261 264 269 270 273 280 278 268 262 260 258 255 256 260 256 256 256 254 255 256 258 258 255 251 248 246 246 247 245 245 245 248 247 248 247
325 311 276 266 264 262 256 261 262 254 248 247 252 260 265 264 269 274 275 275 277 271 264 259 259 259 263 264 262 259 258 258 258 258 260 259 257 255 252 250 251 253 251 247 247 250 249 252 252
321 295 272 265 271 266 257 264 251 250 244 243 255 261 268 269 267 272 274 276 275 272 273 268 262 261 261 265 265 262 259 259 258 260 262 261 259 257 255 252 255 256 254 249 248 251 253 256 256
303 285 268 257 249 257 257 256 245 239 240 259 272 270 272 273 268 267 268 279 280 277 276 274 266 265 263 265 265 261 257 256 259 261 261 261 260 260 259 255 256 257 255 253 251 254 256 258 257
289 270 260 246 254 257 252 251 247 246 246 264 280 280 278 280 274 272 271 277 283 280 277 271 268 266 266 265 265 261 259 259 262 261 259 259 261 260 260 258 257 256 256 257 254 254 257 258 258
275 268 250 247 250 256 257 255 261 260 260 268 281 281 278 278 275 272 278 278 281 283 277 272 269 267 264 264 267 266 264 262 262 261 260 260 260 260 260 261 258 257 256 257 256 255 256 257 257
264 263 251 249 251 254 255 258 265 263 260 268 276 280 277 278 279 279 282 283 286 284 278 276 273 270 269 266 269 269 265 263 260 260 261 262 263 264 263 263 261 259 258 257 257 258 256 258 258
260 258 256 262 262 263 262 260 264 268 269 277 280 281 278 277 281 285 285 288 290 289 284 279 278 277 275 274 274 270 267 266 263 260 260 262 263 265 265 264 262 260 259 259 258 257 258 259 259
257 258 266 268 261 262 266 269 268 272 276 280 281 280 280 279 280 286 289 291 291 290 289 286 283 282 281 279 276 274 270 268 264 261 260 262 263 263 265 266 264 262 261 261 260 259 259 259 258
258 259 264 265 260 262 268 273 273 273 275 277 278 279 279 279 282 288 292 294 295 294 293 290 288 285 283 281 278 277 274 269 267 266 262 264 265 265 265 266 265 263 263 263 261 262 261 261 258
256 258 260 258 258 266 272 274 275 274 275 278 278 278 278 280 282 287 291 292 295 296 296 292 289 287 283 280 279 277 277 275 272 270 265 265 267 268 266 266 264 265 265 262 261 262 263 262 259
255 256 258 260 264 268 272 275 275 276 278 279 279 279 278 279 282 284 286 289 293 295 296 294 293 291 288 286 284 281 278 277 274 273 267 264 266 268 267 266 264 264 263 262 263 264 263 261 260
255 257 257 260 265 268 270 273 276 278 279 280 279 279 278 279 281 283 286 288 289 290 292 292 292 291 289 287 284 281 280 279 277 274 271 266 266 268 270 265 263 262 263 263 263 263 263 262 260
255 259 260 262 268 272 269 271 275 279 280 281 280 280 278 278 281 283 286 287 289 289 289 289 289 289 288 287 285 282 281 279 277 276 273 269 268 269 271 266 263 264 264 262 263 263 264 263 261
257 261 266 271 274 275 272 270 274 277 279 281 282 280 278 279 282 284 285 286 287 289 289 288 287 288 289 288 285 284 282 278 274 273 273 273 270 269 270 270 267 267 263 262 262 263 264 262 261
260 264 269 275 278 276 276 274 275 276 278 280 281 281 281 280 282 284 285 285 286 288 289 289 288 288 287 286 286 284 280 277 273 271 273 274 274 272 271 271 267 266 263 261 261 263 262 262 262
260 265 271 276 277 276 275 275 275 276 279 280 280 281 283 283 282 281 282 283 286 289 289 288 289 288 289 287 285 283 279 278 275 272 272 273 273 273 272 271 268 265 264 262 262 262 263 263 262
262 267 272 275 277 275 277 275 275 279 281 280 280 282 283 282 281 280 280 282 286 288 290 290 291 290 290 289 286 284 281 279 276 272 273 273 272 271 269 271 269 268 266 263 262 262 264 264 265
264 269 274 277 277 277 279 276 275 279 280 279 280 281 282 281 280 280 282 283 286 290 291 291 292 293 292 289 288 285 282 280 278 273 273 272 271 271 270 270 271 269 266 264 265 264 264 265 265
267 268 271 274 276 280 281 280 278 279 280 280 281 281 280 279 279 281 283 285 287 289 290 290 292 293 294 291 289 285 283 281 280 275 273 272 271 270 271 270 269 268 266 265 266 266 264 264 264
268 269 271 276 279 282 284 283 280 280 280 281 281 282 281 279 278 280 284 285 285 286 287 290 290 292 293 292 290 285 283 283 281 278 274 273 271 269 268 268 268 267 267 266 266 268 266 264 264
268 270 273 277 281 284 285 285 283 281 281 282 281 281 281 280 279 281 283 284 285 284 286 290 291 291 291 291 288 284 282 282 280 280 277 275 273 269 267 266 268 268 267 267 266 265 265 266 266
271 271 273 276 279 282 284 284 284 282 282 281 282 280 279 278 277 278 281 283 282 283 285 287 290 291 291 290 287 283 280 281 280 281 279 278 274 271 268 267 266 266 266 265 265 266 265 267 268
272 273 275 278 281 281 282 282 284 283 283 282 282 281 278 277 277 279 281 281 282 283 284 286 287 290 291 288 286 283 280 281 282 281 280 278 276 275 271 268 266 265 265 265 266 267 267 268 268
Height
5871 5871 5871 5872 5872 5872 5870 5871 5870 5870 5869 5869 5869 5868 5868 5869 5869 5871 5868 5867 5867 5867 5867 5867 5867 5867 5866 5866 5866 5866 5865 5865 5865 5865 5865 5865 5866 5866 5866 5866 5866 5866 5866 5866 5866 5866 5867 5867 5868
5871 5871 5871 5871 5871 5870 5870 5869 5869 5869 5868 5868 5867 5867 5867 5867 5867 5867 5866 5866 5866 5866 5866 5866 5866 5866 5866 5865 5865 5865 5865 5865 5865 5864 5864 5864 5865 5865 5865 5865 5865 5865 5865 5866 5866 5865 5865 5866 5867
5870 5870 5871 5870 5870 5870 5869 5868 5868 5867 5867 5867 5867 5867 5867 5867 5866 5866 5865 5865 5865 5865 5865 5865 5865 5865 5865 5864 5864 5864 5864 5864 5864 5864 5864 5863 5864 5864 5864 5864 5864 5864 5864 5865 5865 5865 5865 5865 5866
5869 5870 5870 5870 5868 5869 5868 5867 5867 5867 5866 5866 5866 5866 5866 5866 5865 5865 5864 5864 5864 5864 5864 5864 5864 5864 5864 5863 5863 5863 5863 5863 5863 5863 5863 5863 5863 5863 5863 5863 5863 5863 5863 5863 5864 5864 5864 5864 5864
5868 5868 5869 5868 5868 5867 5867 5866 5866 5866 5865 5865 5865 5865 5865 5865 5864 5864 5864 5863 5863 5863 5863 5863 5863 5863 5863 5862 5862 5862 5862 5862 5862 5862 5862 5862 5862 5862 5862 5862 5862 5862 5862 5862 5863 5863 5863 5863 5863
5868 5868 5868 5867 5867 5866 5866 5865 5865 5865 5865 5864 5864 5864 5864 5863 5863 5863 5863 5863 5862 5862 5862 5862 5862 5862 5861 5861 5861 5861 5861 5861 5861 5861 5861 5860 5860 5860 5860 5860 5860 5861 5861 5861 5861 5861 5861 5861 5861
5867 5867 5866 5866 5865 5865 5865 5864 5864 5864 5864 5864 5863 5863 5863 5862 5862 5862 5862 5861 5861 5861 5861 5861 5861 5860 5860 5860 5860 5860 5860 5860 5859 5859 5859 5859 5859 5859 5859 5859 5859 5859 5859 5859 5859 5860 5860 5859 5859
5866 5866 5865 5865 5865 5864 5864 5864 5864 5863 5863 5863 5863 5862 5862 5862 5861 5861 5861 5860 5860 5860 5860 5859 5859 5859 5859 5859 5859 5859 5858 5858 5858 5858 5857 5857 5857 5857 5857 5857 5857 5857 5857 5857 5857 5857 5858 5858 5858
5865 5866 5864 5864 5864 5864 5863 5863 5863 5863 5863 5862 5862 5861 5861 5861 5860 5860 5860 5859 5859 5858 5858 5858 5857 5857 5857 5857 5857 5857 5857 5856 5856 5856 5856 5855 5855 5855 5855 5855 5855 5855 5855 5855 5855 5855 5855 5855 5855
5864 5864 5864 5864 5863 5863 5863 5863 5862 5862 5862 5861 5861 5861 5860 5860 5859 5859 5858 5858 5857 5857 5857 5856 5856 5856 5856 5855 5855 5855 5855 5855 5854 5854 5854 5853 5853 5853 5853 5853 5853 5853 5853 5853 5853 5853 5853 5853 5853
5862 5862 5862 5862 5862 5862 5862 5862 5861 5861 5861 5861 5860 5860 5859 5858 5858 5858 5857 5857 5856 5855 5855 5855 5854 5854 5854 5853 5853 5853 5853 5852 5852 5852 5852 5851 5851 5851 5851 5851 5851 5851 5850 5850 5850 5850 5850 5850 5850
5861 5861 5861 5861 5861 5861 5861 5861 5861 5860 5860 5860 5859 5858 5858 5857 5857 5856 5856 5856 5855 5854 5854 5853 5852 5852 5852 5851 5851 5851 5850 5850 5850 5850 5849 5849 5849 5848 5848 5848 5848 5848 5848 5848 5848 5848 5848 5847 5847
5860 5860 5860 5860 5860 5860 5860 5860 5860 5859 5859 5858 5858 5857 5857 5856 5856 5855 5854 5854 5853 5852 5852 5851 5851 5850 5850 5849 5849 5849 5848 5848 5848 5847 5847 5847 5846 5846 5846 5845 5845 5845 5845 5845 5845 5845 5845 5845 5844
5859 5859 5859 5859 5859 5859 5859 5859 5859 5858 5858 5857 5857 5856 5855 5855 5854 5854 5853 5852 5852 5851 5850 5850 5849 5848 5847 5847 5846 5846 5846 5845 5845 5845 5844 5844 5844 5843 5843 5843 5843 5842 5842 5842 5842 5842 5842 5842 5841
5857 5857 5857 5857 5857 5857 5858 5858 5857 5857 5856 5856 5855 5854 5854 5853 5853 5852 5851 5851 5850 5849 5848 5847 5847 5846 5845 5844 5844 5843 5843 5842 5842 5842 5842 5841 5841 5841 5841 5840 5840 5839 5839 5839 5839 5839 5839 5839 5838
5855 5856 5856 5856 5856 5856 5857 5857 5856 5855 5855 5854 5854 5853 5852 5852 5851 5850 5850 5849 5848 5847 5846 5845 5844 5843 5843 5842 5841 5840 5840 5840 5839 5839 5839 5838 5838 5838 5838 5837 5837 5837 5836 5836 5836 5835 5835 5835 5835
5854 5854 5854 5855 5854 5854 5855 5854 5854 5853 5853 5852 5852 5851 5851 5850 5849 5848 5848 5847 5846 5845 5844 5843 5842 5841 5840 5839 5838 5838 5837 5837 5836 5836 5836 5835 5835 5835 5834 5834 5834 5833 5833 5833 5833 5832 5832 5832 5832
5852 5852 5852 5852 5852 5852 5852 5852 5852 5851 5850 5850 5850 5849 5848 5848 5847 5846 5845 5844 5843 5842 5841 5840 5839 5838 5837 5836 5836 5835 5834 5834 5833 5833 5832 5832 5831 5831 5831 5830 5830 5830 5830 5830 5829 5829 5829 5829 5829
5849 5850 5850 5850 5850 5850 5850 5849 5849 5848 5848 5847 5847 5847 5846 5845 5844 5844 5843 5842 5841 5840 5839 5837 5836 5835 5834 5833 5833 5832 5831 5830 5830 5829 5828 5828 5827 5827 5827 5827 5826 5826 5826 5826 5826 5826 5825 5825 5825
5846 5847 5847 5847 5847 5847 5847 5847 5846 5845 5845 5845 5844 5844 5843 5842 5841 5841 5840 5839 5838 5837 5836 5834 5833 5832 5831 5830 5829 5828 5827 5827 5826 5825 5825 5824 5824 5824 5823 5823 5823 5823 5822 5822 5822 5822 5822 5822 5822
5844 5844 5844 5845 5845 5844 5844 5844 5843 5843 5842 5842 5841 5840 5840 5839 5838 5837 5836 5836 5834 5833 5832 5831 5830 5828 5827 5826 5825 5824 5823 5823 5822 5822 5821 5821 5820 5820 5820 5819 5819 5819 5819 5818 5818 5818 5818 5818 5818
5841 5841 5842 5842 5842 5841 5842 5841 5841 5840 5839 5839 5838 5837 5836 5835 5834 5834 5833 5832 5831 5830 5829 5827 5826 5825 5823 5822 5821 5820 5819 5818 5818 5817 5817 5817 5816 5816 5816 5815 5815 5815 5815 5814 5814 5814 5814 5814 5814
5838 5838 5839 5838 5838 5838 5838 5838 5838 5836 5836 5835 5834 5833 5832 5832 5831 5830 5829 5828 5827 5826 5825 5824 5822 5821 5820 5818 5817 5816 5815 5814 5813 5813 5813 5813 5812 5812 5811 5811 5811 5811 5810 5810 5810 5810 5810 5810 5809
5835 5835 5835 5835 5835 5835 5835 5835 5834 5833 5832 5831 5830 5829 5829 5828 5827 5826 5825 5825 5824 5822 5821 5820 5819 5817 5816 5814 5813 5811 5810 5810 5809 5809 5808 5808 5808 5807 5807 5807 5806 5806 5806 5806 5806 5806 5806 5805 5805
5832 5833 5832 5832 5832 5832 5831 5830 5831 5829 5828 5827 5826 5825 5824 5824 5823 5822 5821 5820 5819 5818 5817 5816 5815 5813 5812 5810 5809 5807 5806 5806 5805 5804 5804 5803 5803 5803 5802 5802 5802 5801 5801 5801 5801 5801 5801 5801 5800
5828 5829 5830 5830 5829 5828 5827 5826 5827 5825 5824 5823 5822 5821 5820 5819 5819 5818 5817 5816 5815 5814 5813 5812 5810 5809 5807 5806 5804 5803 5802 5801 5800 5800 5799 5798 5798 5798 5797 5797 5797 5796 5796 5796 5796 5796 5796 5796 5796
5825 5825 5825 5825 5824 5824 5823 5823 5822 5821 5820 5819 5818 5817 5816 5815 5815 5814 5813 5812 5811 5810 5809 5807 5806 5804 5803 5801 5800 5798 5797 5796 5796 5795 5794 5793 5793 5792 5792 5792 5792 5792 5791 5791 5792 5791 5791 5791 5791
5821 5821 5821 5820 5820 5820 5820 5819 5818 5816 5815 5814 5813 5812 5812 5811 5810 5809 5809 5808 5807 5805 5804 5803 5801 5800 5798 5797 5795 5794 5792 5791 5791 5790 5789 5788 5788 5787 5787 5787 5786 5786 5786 5786 5786 5786 5786 5786 5786
5817 5817 5816 5816 5816 5816 5815 5817 5813 5812 5811 5810 5809 5808 5807 5806 5805 5805 5804 5803 5801 5800 5799 5798 5797 5795 5793 5792 5790 5789 5788 5786 5786 5785 5784 5783 5782 5782 5781 5781 5781 5781 5781 5781 5781 5781 5781 5780 5780
5812 5812 5812 5812 5811 5810 5810 5813 5808 5807 5806 5805 5804 5803 5802 5801 5800 5799 5798 5797 5796 5795 5794 5793 5791 5790 5788 5786 5785 5783 5782 5781 5780 5779 5778 5777 5776 5776 5775 5775 5775 5774 5774 5774 5774 5774 5774 5774 5774